DateTimeUTC,F1_A11,F1_S11,BsB_S11,BsG_S11,BsR_S11,BbsB_S11,BbsG_S11,BbsR_S11,BaB_A11,BaG_A11,BaR_A11,Tu_S11,T_S11,Uu_S11,U_S11,P_S11,T1_A11
2021-01-24T05:00:00Z,00000200,21000000,,,,,,,0000.04,-000.08,-000.15,16.1,23.2,,00.0,0649.2,30.9
2021-01-24T05:01:00Z,00000200,21000000,,,,,,,-000.34,-000.07,-000.13,16.1,23.2,,00.0,0649.2,30.9
2021-01-24T05:02:00Z,00000200,21000000,,,,,,,0000.19,-000.09,0000.02,16.1,23.2,,00.0,0649.2,30.9
2021-01-24T05:03:00Z,00000200,61000000,,,,,,,-000.26,-000.17,-000.02,16.1,23.2,,00.0,0649.2,30.9
2021-01-24T05:04:00Z,00000200,41000000,0000.01,0000.21,0000.27,0000.07,0000.05,0000.11,-000.07,0000.01,-000.27,16.3,23.0,,00.0,0650.1,30.9
2021-01-24T05:05:00Z,00000200,01000000,0000.41,0000.00,0000.19,0000.34,0000.05,0000.14,-000.24,-000.16,0000.19,16.3,23.0,,00.0,0650.2,30.9
2021-01-24T05:06:00Z,00000200,01000000,-000.37,-000.01,0000.12,0000.30,-000.11,0000.13,-000.31,-000.07,-000.22,16.3,23.0,,00.0,0650.2,30.9
2021-01-24T05:07:00Z,00000200,01000000,0000.60,0000.26,0000.16,-000.13,-000.05,0000.29,0000.12,-000.12,0000.01,16.2,22.9,,00.0,0650.2,30.9
2021-01-24T05:08:00Z,00000200,01000000,0000.49,0000.16,0000.04,-000.24,-000.12,0000.04,-000.48,-000.63,-000.52,16.2,22.9,,00.0,0650.3,30.9
2021-01-24T05:09:00Z,00000200,01000000,0000.77,0000.35,0000.13,0000.31,0000.18,0000.27,-000.62,-000.41,-000.05,16.2,22.9,,00.0,0650.3,30.9
2021-01-24T05:10:00Z,00000200,01000000,0000.81,0000.17,-000.25,0000.87,-000.15,-000.07,-000.00,-000.25,-000.02,16.2,22.9,,00.0,0650.3,30.8
2021-01-24T05:11:00Z,00000200,01000000,-000.02,0000.00,0000.11,0000.52,0000.25,0000.14,-000.20,-000.14,-000.05,16.2,22.9,,00.0,0650.3,30.9
2021-01-24T05:12:00Z,00000200,01000000,0000.29,0000.40,0000.04,0000.41,0000.13,0000.06,0000.38,0000.77,0000.14,16.2,22.9,,00.0,0650.3,30.9
2021-01-24T05:13:00Z,00000200,01000000,0000.26,0000.26,0000.14,0000.16,-000.09,-000.27,0000.05,-000.10,0000.02,16.3,22.9,,00.0,0650.3,30.9
2021-01-24T05:14:00Z,00000200,01000000,0000.65,0000.01,-000.06,-000.15,0000.09,0000.06,0000.14,0000.32,0000.37,16.3,22.9,,00.0,0650.3,30.9
2021-01-24T05:15:00Z,00000200,01000000,0000.20,0000.13,-000.02,0000.21,0000.10,0000.09,0000.01,-000.27,-000.10,16.4,23.0,,00.0,0650.3,30.9
2021-01-24T05:16:00Z,00000200,01000000,0000.54,0000.14,0000.22,0000.37,0000.18,0000.36,-000.17,0000.18,0000.17,16.5,23.0,,00.0,0650.2,30.9
2021-01-24T05:17:00Z,00000200,01000000,0000.10,0000.21,-000.05,0000.44,-000.02,0000.07,0000.55,0000.40,-000.01,16.5,23.0,,00.0,0650.2,30.9
2021-01-24T05:18:00Z,00000200,01000000,-000.31,-000.23,-000.02,0000.24,0000.32,-000.07,-000.12,0000.22,0000.22,16.4,23.0,,00.0,0650.2,30.9
2021-01-24T05:19:00Z,00000200,01000000,-000.12,-000.25,-000.12,-000.07,0000.04,-000.25,0000.43,-000.16,-000.14,16.4,22.9,,00.0,0650.2,30.9
2021-01-24T05:20:00Z,00000200,01000000,0000.35,0000.27,-000.17,0000.16,0000.11,-000.16,-000.05,0000.10,0000.26,16.4,23.0,,00.0,0650.2,30.9
2021-01-24T05:21:00Z,00000200,01000000,0000.32,-000.01,-000.00,0000.33,-000.15,0000.12,0000.46,-000.15,-000.19,16.3,22.9,,00.0,0650.2,30.9
2021-01-24T05:22:00Z,00000200,01000000,0000.59,0000.30,-000.11,0000.40,0000.03,0000.12,-000.37,0000.35,0000.19,16.3,22.9,,00.0,0650.2,30.9
2021-01-24T05:23:00Z,00000200,01000000,0000.14,0000.43,-000.03,0000.27,0000.13,-000.06,0000.38,0000.09,0000.27,16.3,22.9,,00.0,0650.2,30.9
2021-01-24T05:24:00Z,00000200,01000000,0000.18,-000.08,-000.19,-000.07,0000.25,0000.23,-000.06,-000.04,-000.04,16.2,22.9,,00.0,0650.2,30.9
2021-01-24T05:25:00Z,00000200,01000000,0000.17,-000.21,0000.07,0000.04,0000.03,-000.08,-000.08,-000.14,-000.29,16.2,22.9,,00.0,0650.1,30.9
2021-01-24T05:26:00Z,00000200,01000000,0000.20,-000.08,-000.00,-000.10,0000.15,0000.06,0000.42,0000.29,0000.14,16.2,22.9,,00.0,0650.1,30.9
2021-01-24T05:27:00Z,00000200,01000000,0000.08,-000.17,0000.00,-000.38,-000.05,-000.10,0000.10,0000.14,0000.24,16.3,22.9,,00.0,0650.1,30.9
2021-01-24T05:28:00Z,00000200,01000000,0001.03,-000.16,0000.15,0000.69,0000.30,0000.24,0000.07,0000.31,0000.17,16.3,22.9,,00.0,0650.1,30.9
2021-01-24T05:29:00Z,00000200,01000000,0000.45,0000.16,-000.16,-000.19,0000.10,0000.03,0000.14,-000.00,-000.13,16.4,23.0,,00.0,0650.1,30.9
2021-01-24T05:30:00Z,00000200,01000000,-000.17,0000.02,-000.11,0000.02,-000.01,0000.22,0000.23,0000.27,0000.14,16.5,23.0,,00.0,0650.1,30.9
2021-01-24T05:31:00Z,00000200,01000000,-000.08,0000.03,0000.23,0000.24,0000.17,0000.03,0000.25,-000.17,0000.08,16.5,23.0,,00.0,0650.0,30.9
2021-01-24T05:32:00Z,00000200,01000000,0000.04,-000.29,-000.08,-000.19,-000.10,-000.02,0000.06,0000.59,0000.44,16.5,23.0,,00.0,0650.0,30.9
2021-01-24T05:33:00Z,00000200,01000000,-000.09,0000.13,-000.05,-000.26,-000.05,-000.00,-000.01,-000.39,-000.24,16.5,23.0,,00.0,0650.0,30.9
2021-01-24T05:34:00Z,00000200,01000000,0000.56,0000.23,-000.12,0000.57,-000.02,-000.19,0000.16,0000.49,0000.19,16.5,23.0,,00.0,0650.0,30.9
2021-01-24T05:35:00Z,00000200,01000000,0000.53,-000.12,-000.06,0000.01,0000.01,-000.05,0000.29,-000.04,0000.12,16.4,23.0,,00.0,0650.0,30.9
2021-01-24T05:36:00Z,00000200,01000000,0001.06,-000.09,0000.22,0000.23,0000.02,0000.10,-000.19,-000.13,0000.16,16.4,23.0,,00.0,0650.0,30.9
2021-01-24T05:37:00Z,00000200,01000000,-000.12,-000.03,0000.20,0000.34,0000.22,0000.11,0000.13,0000.15,-000.21,16.3,23.0,,00.0,0650.0,30.9
2021-01-24T05:38:00Z,00000200,01000000,0000.51,0000.09,0000.18,0000.48,0000.29,0000.08,0000.42,0000.19,0000.19,16.3,22.9,,00.0,0649.9,30.9
2021-01-24T05:39:00Z,00000200,01000000,0000.16,0000.15,0000.42,0000.35,-000.01,0000.14,-000.08,-000.25,0000.11,16.3,22.9,,00.0,0649.9,30.9
2021-01-24T05:40:00Z,00000200,01000000,0000.68,-000.11,-000.11,0000.39,-000.07,-000.04,-000.46,-000.28,-000.31,16.3,22.9,,00.0,0649.9,30.9
2021-01-24T05:41:00Z,00000200,01000000,-000.31,0000.08,0000.18,0000.09,0000.09,-000.00,0000.52,0000.40,0000.19,16.3,22.9,,00.0,0649.9,30.9
2021-01-24T05:42:00Z,00000200,01000000,0000.35,-000.15,-000.09,0000.22,-000.08,0000.10,0000.14,0000.43,0000.21,16.3,22.9,,00.0,0649.9,30.9
2021-01-24T05:43:00Z,00000200,01000000,-000.10,-000.18,0000.16,0000.24,0000.07,-000.10,0000.13,0000.38,0000.21,16.4,22.9,,00.0,0649.9,30.9
2021-01-24T05:44:00Z,00000200,01000000,0000.34,-000.28,-000.01,0000.63,-000.10,-000.11,0000.16,0000.23,0000.04,16.4,22.9,,00.0,0649.8,30.9
2021-01-24T05:45:00Z,00000200,01000000,0000.15,0000.10,0000.05,0000.59,0000.22,0000.08,-000.20,-000.49,-000.25,16.5,23.0,,00.0,0649.8,30.9
2021-01-24T05:46:00Z,00000200,01000000,-000.45,0000.08,-000.12,0000.13,0000.22,0000.13,0000.11,0000.24,0000.46,16.5,23.0,,00.0,0649.8,30.9
2021-01-24T05:47:00Z,00000200,01000000,-000.31,0000.13,0000.24,0000.34,-000.16,0000.08,0000.06,0000.24,-000.08,16.5,23.0,,00.0,0649.8,30.9
2021-01-24T05:48:00Z,00000200,01000000,-000.92,-000.16,0000.09,-000.22,-000.01,-000.13,0000.32,0000.07,-000.27,16.5,23.0,,00.0,0649.8,30.9
2021-01-24T05:49:00Z,00000200,01000000,0000.89,0000.02,0000.06,0000.34,0000.30,0000.15,-000.39,-000.17,-000.05,16.4,23.0,,00.0,0649.8,30.9
2021-01-24T05:50:00Z,00000200,01000000,0000.41,-000.15,0000.18,0000.28,0000.13,-000.10,0000.08,0000.04,0000.25,16.4,23.0,,00.0,0649.8,30.9
2021-01-24T05:51:00Z,00000200,01000000,-000.06,0000.00,-000.13,0000.37,0000.03,-000.24,0000.38,-000.14,0000.16,16.4,22.9,,00.0,0649.7,30.9
2021-01-24T05:52:00Z,00000200,01000000,0000.14,0000.12,-000.16,0000.05,-000.01,-000.15,-000.46,0000.22,0000.06,16.4,22.9,,00.0,0649.7,30.9
2021-01-24T05:53:00Z,00000200,01000000,0000.22,-000.02,0000.40,0000.57,0000.42,0000.12,0000.13,-000.13,-000.34,16.3,22.9,,00.0,0649.7,30.9
2021-01-24T05:54:00Z,00000200,01000000,-000.09,-000.12,0000.12,0000.40,0000.06,0000.20,0000.32,0000.01,0000.13,16.3,22.9,,00.0,0649.6,30.9
2021-01-24T05:55:00Z,00000200,01000000,-000.03,0000.08,0000.28,0000.12,-000.17,0000.00,-000.17,-000.40,-000.13,16.3,22.9,,00.0,0649.6,30.9
2021-01-24T05:56:00Z,00000200,01000000,-000.47,-000.05,-000.28,0000.50,0000.21,0000.26,0000.30,0000.18,-000.15,16.3,22.9,,00.0,0649.6,30.9
2021-01-24T05:57:00Z,00000200,41000000,,,,,,,0000.31,0000.17,0000.75,16.3,22.9,,00.0,0649.4,30.9
2021-01-24T05:58:00Z,00000200,61000000,,,,,,,-000.25,0000.27,0000.13,16.0,23.1,,00.0,0648.7,30.9
2021-01-24T05:59:00Z,00000200,21000000,,,,,,,0000.05,0000.12,-000.60,16.0,23.2,,00.0,0648.7,30.9
